User: anonymous   Login
Location: Asheville, NC
(35.6000°N, 82.5500°W)
Time: 07:40:20
(UTC-04:00)
Language:

ELECTRON R/B - Orbit

View from above orbital plane
View from above orbital plane
View from above satellite
View from above satellite

Ground track
Ground track

The orbit data is extracted from the following two-line orbital elements,

1 43166U 18010D   18141.72728187 +.00036712 -85360-6 +24808-3 0  9990
2 43166 082.9132 019.5898 0143977 133.2002 228.1392 15.61774452018771
Epoch (UTC): 21 May 2018 17:27:17
Eccentricity: 0.0143977
inclination: 82.9132°
perigee height: 285 km
apogee height: 480 km
right ascension of ascending node: 19.5898°
argument of perigee: 133.2002°
revolutions per day: 15.61774452
mean anomaly at epoch: 228.1392°
orbit number at epoch: 1877

The dashed part of the orbit path shows where the satellite is in the earth's shadow,  

DLR